Location: *
(2.5833°S, 66.1000°W)
Time: 18:55:28
(UTC+00:00)

Daily predictions for brighter satellites

Satellite Brightness Start Highest point End
(mag) Time Altitude Azimuth Time Altitude Azimuth Time Altitude Azimuth
Cosmos 2292 Rocket 2.8 22:36:24 10° N 22:39:21 60° E 22:42:50 10° SSE
CZ-2C R/B 1.4 22:35:17 10° SW 22:39:35 82° NW 22:43:40 10° NE
Cosmos 1437 Rocket 4.3 22:38:53 10° SE 22:41:07 15° E 22:43:20 10° ENE
Meteor 2-2 Rocket 4.3 22:36:12 10° S 22:41:52 61° E 22:47:26 10° NNE
Maqsat 3 4.2 22:36:29 10° W 22:43:30 88° S 22:49:19 10° E
Meteor 2-3 Rocket 4.0 22:38:34 10° NNE 22:43:52 47° E 22:49:12 10° SSE
H-2A R/B 3.1 22:40:22 10° SE 22:44:12 23° ENE 22:47:59 10° NNE
Ariane 44P Rocket 4.4 22:40:32 10° W 22:44:59 88° N 23:16:27 10° E
Ariane 44P Rocket 4.4 22:40:32 10° W 22:44:59 88° N 23:16:26 10° E
Ariane 44P Rocket 4.4 22:40:33 10° W 22:45:00 88° N 23:16:23 10° E
Ariane 44P Rocket 4.4 22:40:32 10° W 22:45:00 88° N 23:16:26 10° E
NOSS 2 (A) 4.4 22:42:39 10° NNW 22:45:09 54° ENE 22:48:07 10° SSE
ARIANE 5 DEB (SYLDA) 1.9 22:45:53 10° WNW 22:47:26 25° N 22:48:51 10° ENE
Cosmos 1689 Rocket 3.1 22:45:21 10° NE 22:47:37 22° ESE 22:49:55 10° SSE
CZ-2C R/B 2.8 22:43:09 10° SSE 22:47:55 77° ENE 22:52:48 10° N
Cosmos 1606 3.8 22:47:07 10° SSE 22:50:06 22° E 22:53:04 10° NE
Cosmos 2151 2.9 22:46:26 10° N 22:50:37 88° E 22:54:49 10° S
ISS -3.8 22:52:40 10° SW 22:56:01 88° SE 22:59:21 10° NE
CZ-4 R/B 2.8 22:52:56 10° SE 22:56:03 21° E 22:59:08 10° NNE
Cosmos 1844 Rocket 4.4 22:57:26 10° SW 23:02:30 36° WNW 23:07:33 10° N
Cosmos 540 Rocket 4.4 22:59:00 10° NNE 23:03:15 27° ENE 23:06:40 14° SE
ERS-2 3.0 23:00:27 10° NE 23:03:35 27° ESE 23:06:43 10° SSE
Cosmos 2278 Rocket 3.3 22:59:51 10° SSE 23:03:55 20° ESE 23:07:58 10° ENE
Meteosat 1 Rocket2 2.8 23:04:13 10° SW 23:07:45 51° SSE 23:10:46 15° ENE
CZ-2C R/B 3.3 23:03:28 10° N 23:08:57 64° WNW 23:14:31 10° SSW
Okean O Rocket 2.6 23:06:35 10° S 23:10:53 49° WSW 23:15:11 10° NNW
CZ-4B R/B 4.1 23:06:00 10° S 23:11:07 50° WSW 23:16:15 10° NNW
Ariane 42L Rocket 4.4 23:06:54 10° W 23:12:35 57° N 23:23:32 10° ENE
Sakura Rocket 2.9 23:08:58 10° WSW 23:12:50 88° SSE 23:17:45 10° ENE
Okean 3 Rocket 3.5 23:12:54 10° N 23:17:12 58° E 23:21:30 10° SSE
Cosmos 1354 Rocket 3.9 23:13:30 10° S 23:18:43 75° ESE 23:23:55 10° NNE
Cosmos 2266 Rocket 3.9 23:14:01 10° N 23:20:03 85° E 23:26:06 10° S
CZ-2D R/B 4.4 23:16:27 10° S 23:20:10 45° WSW 23:23:51 10° NNW
SAR-Lupe-4 3.4 23:16:53 10° NNE 23:20:26 74° ESE 23:24:00 10° S
YAOGAN 1 3.0 23:18:23 19° SE 23:21:00 39° ENE 23:25:01 10° N
Okean-O 3.4 23:21:51 25° ESE 23:23:15 31° ENE 23:27:08 10° NNE
USA 229 DEB 4.2 23:20:19 10° N 23:27:49 52° ENE 23:32:50 22° SE
USA 229 4.2 23:20:24 10° N 23:27:55 51° ENE 23:32:52 22° SE
SL-16 R/B 4.1 23:25:53 10° NW 23:30:36 28° WSW 23:35:22 10° SSW
SJ-11-01 4.2 23:27:49 13° SSE 23:32:05 71° ENE 23:36:46 10° N
Cosmos 1766 Rocket 3.7 23:29:56 10° N 23:34:21 75° W 23:38:51 10° S
Cosmos 1943 3.4 23:30:57 10° N 23:36:22 48° ENE 23:38:27 33° SE
Lacrosse 5 rocket 1.8 23:33:27 10° NW 23:37:57 66° WSW 23:40:26 26° SSE
NOAA 15 4.5 23:35:21 19° SSE 23:39:10 68° ENE 23:44:22 10° N
Ariane H10 1.5 23:37:14 10° W 23:39:35 70° SSW 23:39:35 70° SSW
Skynet4D Del rocket 4.0 23:39:57 10° WSW 23:45:14 61° NNW 23:49:10 20° NE
NOSS 3-1 (A) 4.3 23:38:24 10° NNW 23:47:17 70° ENE 23:52:45 27° SE
S3M 3.9 23:43:13 10° S 23:49:36 71° E 23:55:56 10° N
HJ-1C 4.2 23:50:42 41° N 23:50:42 41° N 23:52:59 10° N
Cosmos 921 Rocket 2.8 23:48:45 10° N 23:52:41 70° NE 23:52:41 70° NE
